Zurück zum Katalog

STARLINK-37270

AktivKommunikationVLEO
NORAD 68727·PAYLOAD·🇺🇸 United States

Gestartet Apr 14, 2026 von Cape Canaveral Space Force Station

Loading…

Nächste Überflüge (nächste 24 Stunden)

TLE

AktuellSource: CelesTrak SupGP

Epoche: Sep 14, 2026, 22:51 UTC

1 68727C 26081AE  26257.95256944  .00017539  00000+0  51804-3 0  2575
2 68727  53.1576 231.3545 0001462 100.1375 166.4682 15.34390886    13

Verfolge STARLINK-37270 in Echtzeit mit AllMySat

Download on the App Store